Regional Weather Roundup
Issued by NWS

Home | Current Version | Previous Version | Graphics & Text | Print | Product List | Glossary On
Versions: 1 2 3 4 5 6 7 8 9 10 11 12 13 14 15 16 17 18 19 20 21 22 23 24 25 26 27 28 29 30 31 32 33 34 35 36 37 38 39 40 41 42 43 44 45 46 47 48 49 50
000
ASUS43 KBIS 281102
RWRND

NORTH DAKOTA REGIONAL WEATHER ROUNDUP
NATIONAL WEATHER SERVICE BISMARCK ND
600 AM CDT FRI APR 28 2017

NOTE: "FAIR" INDICATES FEW OR NO CLOUDS BELOW 12,000 FEET WITH NO
SIGNIFICANT WEATHER AND/OR OBSTRUCTIONS TO VISIBILITY.


NDZ001>003-009>011-017-281200-
NORTHWEST NORTH DAKOTA

CITY           SKY/WX    TMP DP  RH WIND       PRES   REMARKS
WILLISTON      FAIR      27  22  81 NE3       29.95R
MINOT          FAIR      25  22  88 CALM      29.95R
MINOT AFB      CLEAR     20  17  90 NW6       29.95R WCI  12
$$

NDZ018>021-031>035-040>046-281200-
SOUTHWEST NORTH DAKOTA

CITY           SKY/WX    TMP DP  RH WIND       PRES   REMARKS
BISMARCK       FAIR      22  21  96 CALM      29.94R FOG
DICKINSON      FAIR      24  18  77 E8        29.89R WCI  15
GARRISON         N/A     21  18  88 N6        29.94R WCI  13
HETTINGER ARPT PTCLDY    27  22  81 NE10      29.89R WCI  17
$$

NDZ004>008-012>016-024-026-027-054-281200-
NORTHEAST NORTH DAKOTA

CITY           SKY/WX    TMP DP  RH WIND       PRES   REMARKS
GRAND FORKS    CLEAR     31  28  89 NW7       29.91R
GRND FRKS AFB  CLEAR     29  25  86 NW7       29.92R
DEVILS LAKE    FAIR      26  22  84 NW7       29.94R WCI  18
$$

NDZ022-023-025-028>030-036>039-047>053-281200-
SOUTHEAST NORTH DAKOTA

CITY           SKY/WX    TMP DP  RH WIND       PRES   REMARKS
FARGO          CLEAR     25  23  92 W7        29.90R WCI  17
JAMESTOWN      FAIR      26  24  92 NW6       29.91R WCI  19
$$





USA.gov is the U.S. government's official web portal to all federal, state and local government web resources and services.